Regional Weather Roundup
Issued by NWS

Home | Current Version | Previous Version | Text Only | Print | Product List | Glossary Off
Versions: 1 2 3 4 5 6 7 8 9 10 11 12 13 14 15 16 17 18 19 20 21 22 23 24 25 26 27 28 29 30 31 32 33 34 35 36 37 38 39 40 41 42 43 44 45 46 47 48 49 50

798
ASUS45 KSLC 280710
RWRUT

UTAH REGIONAL WEATHER ROUNDUP
NATIONAL WEATHER SERVICE SALT LAKE CITY UT
100 AM MDT SUN AUG 28 2016

UTZ001>011-023>025-280800-

NORTHERN UTAH

CITY           SKY/WX    TMP DP  RH WIND       PRES   REMARKS
BRIGHAM CITY     N/A     59  35  41 CALM      30.05S
HILL AFB       CLEAR     65  27  23 E16       30.08R
LOGAN          CLEAR     55  37  50 SW6       30.06R
OGDEN          CLEAR     64  28  25 S10       30.05R
PROVO AIRPORT  CLEAR     64  41  42 SE7       30.10R
SALT LAKE CITY CLEAR     69  35  28 SE9       30.05R
VERNAL         CLOUDY    56  46  69 W3        30.17R
WENDOVER       CLEAR     64  32  29 CALM      30.03S
HEBER CITY     CLEAR     50  36  57 CALM      30.17R
WEST JORDAN    CLEAR     68  41  37 S8        30.09R

$$

UTZ012>022-026-027-280800-

SOUTHERN/CENTRAL UTAH

CITY           SKY/WX    TMP DP  RH WIND       PRES   REMARKS
BLANDING       PTCLDY    58  46  66 E8        30.31S
BRYCE CANYON   CLOUDY    50  47  89 CALM      30.34R
CEDAR CITY     PTCLDY    55  45  68 S3        30.21R
MILFORD        CLEAR     59  50  72 S15       30.16R
MOAB/CYNLANDS  CLOUDY    70  48  45 CALM      30.14R
PRICE          PTCLDY    61  39  44 E8        30.22R
ST GEORGE      SUNNY     70  55  60 CALM      30.10F

$$

REGIONAL REPORTS     COLORADO/ARIZONA

CITY           SKY/WX    TMP DP  RH WIND       PRES   REMARKS
CRAIG, CO      CLOUDY    52  37  56 CALM      30.23R
GRAND JUNCTION CLEAR     63  48  58 E7        30.16R
RIFLE          CLOUDY    57  50  77 CALM      30.21R
MONTROSE       CLOUDY    59  48  67 SE6       30.24S
CORTEZ         CLEAR     53  49  86 S3        30.25R
PAGE, AZ       MOCLDY    66  52  60 CALM      30.16R
GRAND CANYON   CLOUDY    53  50  89 CALM      30.28R
KINGMAN        MOCLDY    65  57  75 S6        30.08S
FLAGSTAFF      PTCLDY    48  47  96 CALM      30.30R

$$

REGIONAL REPORTS    NEVADA/IDAHO/WYOMING

CITY           SKY/WX    TMP DP  RH WIND       PRES   REMARKS
LAS VEGAS, NV  PTCLDY    81  45  28 NE6       29.98R
ELY            CLEAR     59  40  49 S12       30.21R
ELKO           CLEAR     56  25  30 CALM      30.09R
POCATELLO, ID  CLEAR     62  29  28 S8        30.02R
BURLEY         CLEAR     55  40  56 S3        29.99S
EVANSTON, WY   CLOUDY    55  24  30 S7        30.25R
ROCK SPRINGS   CLEAR     57  21  24 SW10      30.22R

$$




USA.gov is the U.S. government's official web portal to all federal, state and local government web resources and services.